Weather in Gulyayevo

Russia / Republic of Mordovia     54°44′11″N   45°07′30″E
temp.,
°C
wind,
m/s
gust,
m/s
humid.,
%
clouds,
%
prec.,
mm/h
press.,
hPa
HPBL,
m
17 october, sun
sun1700:00+8sw51361100 0.0 1017661
03:00+8ssw5126259 0.0 1016682
06:00+8sw5116384 0.0 1016475
09:00+9sw476497 0.0 1016418
12:00+12sw58557 0.0 10161300
15:00+12sw5853100 0.0 10141584
18:00+10wsw276698 0.0 1014329
21:00+9ssw377196 0.0 1014273
18 october, mon
mon1800:00+8w257955 0.0 1013201
03:00+6w247967 0.0 1013120
06:00+4wsw2585100 0.0 1012104
09:00+6wsw367536 0.0 1012337
12:00+9wsw5758100 0.0 10101315
15:00+9wsw6949100 0.0 10091817
18:00+8wsw4105396 0.0 1009644
21:00+6w5883100 0.1 1010844
19 october, tue
tue1900:00+3wnw268498 0.1 1011211
03:00+3wsw2592100 0.1 1011147
06:00+2wsw2693100 0.0 1012139
09:00+4wnw357687 0.0 1012372
12:00+6wnw346092 0.0 10121236
15:00+5nw3562100 0.1 1012900
18:00+4nw2557100 0.0 1013580
21:00+2nw267835 0.1 1014280
20 october, wed
wed2000:000nw258945 0.0 1014109
03:000nw2488100 0.0 1015125
06:000nw269096 0.1 1016191
09:00+2nnw47798 0.1 1017444
12:00+4nw5668100 0.1 10181112
15:00+3nw4661100 0.2 10191207
18:00+2wnw4768100 0.0 1021577
21:00+2wnw366499 0.0 1021510
21 october, thu
thu2100:000w377321 0.0 1021276
03:00−2sw37875 0.0 1020209
06:00−3s399096 0.0 1019229
09:00+1ssw61458100 0.0 1016514
12:00+2ssw71673100 0.2 1012703
15:00+3sw71683100 0.5 1010693
18:00+5sw81881100 1.1 1007654
21:00+7sw71884100 1.2 1005666